| time (UTC) | temp F | wind direction | speed MPH | gust MPH | rain 1hr in | rain 24hr in | rain mn in | humidity % | barometer mb |
| 20260504173059 | 69 | 240 | 2.0 | 13.0 | 0.00 | 0.00 | 0.00 | 35 | 1005.6 |
| 20260504171557 | 68 | 222 | 5.0 | 17.0 | 0.00 | 0.00 | 0.00 | 33 | 1005.5 |
| 20260504120104 | 52 | 240 | 0.0 | 8.0 | 0.00 | 0.00 | 0.00 | 56 | 1008.7 |
| 20260504081532 | 45 | 278 | 0.0 | 2.0 | 0.00 | 0.00 | 0.00 | 63 | 1008.7 |
| 20260504050003 | 41 | 308 | 0.0 | 1.0 | 0.00 | 0.00 | 0.00 | 67 | 1008.6 |
| 20260504044600 | 40 | 283 | 0.0 | 1.0 | 0.00 | 0.00 | 0.00 | 68 | 1008.7 |
| 20260504043103 | 40 | 278 | 0.0 | 1.0 | 0.00 | 0.00 | 0.00 | 69 | 1008.5 |
| 20260504041555 | 39 | 262 | 0.0 | 1.0 | 0.00 | 0.00 | 0.00 | 70 | 1008.5 |
| 20260504040120 | 38 | 255 | 0.0 | 0.0 | 0.00 | 0.00 | 0.00 | 71 | 1008.4 |
| 20260504034549 | 39 | 255 | 0.0 | 1.0 | 0.00 | 0.00 | 0.00 | 69 | 1008.3 |
| 20260504033049 | 40 | 133 | 0.0 | 1.0 | 0.00 | 0.00 | 0.00 | 67 | 1008.2 |
| 20260504031555 | 39 | 112 | 0.0 | 1.0 | 0.00 | 0.00 | 0.00 | 67 | 1008.3 |
| 20260504030045 | 41 | 328 | 0.0 | 1.0 | 0.00 | 0.00 | 0.00 | 66 | 1008.2 |
| 20260504024545 | 40 | 269 | 0.0 | 2.0 | 0.00 | 0.00 | 0.00 | 67 | 1008.2 |
| 20260504023044 | 40 | 245 | 0.0 | 0.0 | 0.00 | 0.00 | 0.00 | 66 | 1008.2 |
| 20260504021542 | 40 | 245 | 0.0 | 0.0 | 0.00 | 0.00 | 0.00 | 65 | 1008.1 |
| 20260504020046 | 41 | 245 | 0.0 | 0.0 | 0.00 | 0.00 | 0.00 | 64 | 1008.0 |
| 20260504014542 | 42 | 245 | 0.0 | 0.0 | 0.00 | 0.00 | 0.00 | 62 | 1007.8 |
| 20260504013042 | 43 | 245 | 0.0 | 0.0 | 0.00 | 0.00 | 0.00 | 60 | 1007.8 |
| 20260504011541 | 44 | 245 | 0.0 | 0.0 | 0.00 | 0.00 | 0.00 | 58 | 1007.7 |
| 20260504010037 | 45 | 272 | 0.0 | 1.0 | 0.00 | 0.00 | 0.00 | 57 | 1007.5 |
| 20260504004537 | 46 | 353 | 0.0 | 0.0 | 0.00 | 0.00 | 0.00 | 55 | 1007.3 |
| 20260504003036 | 47 | 40 | 0.0 | 3.0 | 0.00 | 0.00 | 0.00 | 53 | 1007.1 |
| 20260504001543 | 48 | 28 | 0.0 | 2.0 | 0.00 | 0.00 | 0.00 | 51 | 1007.0 |
| 20260504000036 | 48 | 302 | 0.0 | 3.0 | 0.00 | 0.00 | 0.00 | 50 | 1006.8 |
| 20260503234553 | 49 | 11 | 0.0 | 2.0 | 0.00 | 0.00 | 0.00 | 48 | 1006.5 |
| 20260503233039 | 49 | 192 | 0.0 | 4.0 | 0.00 | 0.00 | 0.00 | 48 | 1006.3 |
| 20260503231535 | 50 | 57 | 0.0 | 6.0 | 0.00 | 0.00 | 0.00 | 46 | 1006.1 |
| 20260503230033 | 51 | 43 | 0.0 | 5.0 | 0.00 | 0.00 | 0.00 | 47 | 1005.9 |
| 20260503224531 | 51 | 46 | 1.0 | 4.0 | 0.00 | 0.01 | 0.00 | 46 | 1005.6 |
| 20260503223031 | 51 | 347 | 0.0 | 4.0 | 0.00 | 0.01 | 0.00 | 46 | 1005.6 |
| 20260503221535 | 51 | 288 | 1.0 | 11.0 | 0.00 | 0.01 | 0.00 | 45 | 1005.4 |
| 20260503220031 | 51 | 151 | 1.0 | 4.0 | 0.00 | 0.01 | 0.00 | 45 | 1005.1 |
| 20260503214530 | 52 | 329 | 0.0 | 8.0 | 0.00 | 0.01 | 0.00 | 45 | 1004.9 |
| 20260503213033 | 52 | 42 | 1.0 | 11.0 | 0.00 | 0.01 | 0.00 | 44 | 1004.8 |
| 20260503211529 | 52 | 266 | 2.0 | 9.0 | 0.00 | 0.01 | 0.00 | 43 | 1004.6 |
| 20260503210027 | 52 | 326 | 2.0 | 6.0 | 0.00 | 0.01 | 0.00 | 45 | 1004.4 |
| 20260503204527 | 52 | 71 | 1.0 | 11.0 | 0.00 | 0.01 | 0.00 | 46 | 1004.3 |
| 20260503203025 | 53 | 318 | 1.0 | 5.0 | 0.00 | 0.01 | 0.00 | 47 | 1004.1 |
| 20260503201524 | 53 | 311 | 0.0 | 5.0 | 0.00 | 0.01 | 0.00 | 48 | 1004.0 |
| 20260503200024 | 54 | 34 | 0.0 | 6.0 | 0.00 | 0.01 | 0.00 | 48 | 1004.0 |
| 20260503194524 | 55 | 51 | 1.0 | 7.0 | 0.00 | 0.01 | 0.00 | 46 | 1004.0 |
| 20260503193022 | 54 | 226 | 0.0 | 5.0 | 0.00 | 0.01 | 0.00 | 51 | 1004.0 |
| 20260503191528 | 55 | 48 | 1.0 | 6.0 | 0.00 | 0.01 | 0.00 | 47 | 1004.2 |
| 20260503190020 | 55 | 332 | 0.0 | 5.0 | 0.00 | 0.01 | 0.00 | 50 | 1004.3 |
| 20260503184517 | 52 | 302 | 2.0 | 7.0 | 0.00 | 0.01 | 0.00 | 52 | 1004.5 |
| 20260503183017 | 50 | 285 | 2.0 | 17.0 | 0.00 | 0.01 | 0.00 | 56 | 1004.5 |
| 20260503181512 | 51 | 46 | 1.0 | 5.0 | 0.00 | 0.01 | 0.00 | 57 | 1004.5 |
| 20260503180011 | 51 | 54 | 1.0 | 6.0 | 0.00 | 0.01 | 0.00 | 58 | 1004.3 |
| 20260503174509 | 51 | 7 | 0.0 | 8.0 | 0.00 | 0.01 | 0.00 | 58 | 1004.3 |